{"data":{"norad_id":67657,"intl_designator":"2026-022K","name":"STARLINK-36706","alt_names":[],"object_type":"PAYLOAD","status":"ACTIVE","operator":null,"country":"US","launch_date":"2026-02-02","launch_site_code":"AFWTR","launch_vehicle":null,"mission":null,"orbit_class":"UNKNOWN","rcs_meters":null,"size_class":null,"mass_kg":null,"dimensions":null,"purposes":["comms"],"wikipedia_slug":null,"has_3d_model":false,"image_url":null,"decayed_at":null,"tle_current":{"epoch":"2026-09-18T01:57:11.695968Z","epoch_age_seconds":277841,"freshness":"STALE","line1":"1 67657U 26022K   26261.08138537  .00016701  00000+0  51868-3 0  9990","line2":"2 67657  97.2841 292.6358 0001310 108.0684 252.0701 15.33433234 35052","mean_motion":15.33433234,"eccentricity":0.000131,"inclination_deg":97.2841,"raan_deg":292.6358,"arg_perigee_deg":108.0684,"mean_anomaly_deg":252.0701,"bstar":0.00051868,"rev_number":3505,"period_min":93.90692519711,"perigee_km":464.68165535104,"apogee_km":466.47470872874,"semimajor_km":6843.7151820399,"source":"CELESTRAK","updated_at":"2026-09-20T09:00:43.620784Z"}}}